Stations météo

réclame
Mon MeteoGroup
Volkel, Pays-Bas (6375): Température de l'air & dewpoint: 22.05.2018 12:00:00 - 28.05.2018 12:00:00 (CEST)Volkel, Pays-Bas (6375): Température de l'air 5cm: 22.05.2018 12:00:00 - 28.05.2018 12:00:00 (CEST)Volkel, Pays-Bas (6375): Vitesse du vent & gusts: 22.05.2018 12:00:00 - 28.05.2018 12:00:00 (CEST)Volkel, Pays-Bas (6375): Direction du vent: 22.05.2018 12:00:00 - 28.05.2018 12:00:00 (CEST)Volkel, Pays-Bas (6375): reduced air pressure: 22.05.2018 12:00:00 - 28.05.2018 12:00:00 (CEST)Volkel, Pays-Bas (6375): visibility: 22.05.2018 12:00:00 - 28.05.2018 12:00:00 (CEST)Volkel, Pays-Bas (6375): Quantités de précipitations: 22.05.2018 12:00:00 - 28.05.2018 12:00:00 (CEST)
Date & Time tt [°C] td [°C] tt 5cm [°C] ff [km/h] ff [knt] fx [km/h] fx [knt] dd ppp [hPa] vv [km] rr [mm]
28.05.2018 12:00:00 - - - - - - - - - - -
28.05.2018 11:00:00 24,2 16,9 25,6 11 6 18 10 E 1018,6 10 0,0
28.05.2018 10:00:00 22,9 16,7 24,3 11 6 18 10 ENE 1018,5 10 0,0
28.05.2018 09:00:00 21,2 16,7 22,6 8 4 14 8 E 1018,1 10 0,0
28.05.2018 08:00:00 19,2 16,2 19,6 8 4 11 6 E 1017,8 7 0,0
28.05.2018 07:00:00 15,9 15,5 14,6 0 0 4 2 N 1017,3 4,0 0,0
28.05.2018 06:00:00 15,0 15,0 12,1 4 2 4 2 ENE 1017,4 4,4 0,0
28.05.2018 05:00:00 15,8 15,2 14,7 2 1 11 6 ENE 1017,4 8 0,0
28.05.2018 04:00:00 17,0 15,5 16,0 8 4 11 6 ESE 1017,4 8 0,0
28.05.2018 03:00:00 16,5 15,5 15,6 8 4 7 4 ENE 1016,9 6 0,0
28.05.2018 02:00:00 16,9 16,0 16,0 5 3 7 4 NE 1017,4 6 0,0
28.05.2018 01:00:00 17,3 15,8 16,4 5 3 11 6 N 1017,4 10 0,0
28.05.2018 00:00:00 18,9 15,7 17,7 8 4 14 8 SE 1017,0 10 0,0
27.05.2018 23:00:00 17,1 16,1 15,6 4 2 7 4 - 1017,5 10 0,0
27.05.2018 22:00:00 17,8 16,0 17,1 5 3 11 6 SE 1017,1 10 0,0
27.05.2018 21:00:00 20,1 16,2 18,9 5 3 11 6 SE 1017,0 10 0,0
27.05.2018 20:00:00 21,0 16,7 21,3 5 3 25 14 ESE 1016,1 10 0,0
27.05.2018 19:00:00 23,1 16,5 23,5 13 7 22 12 SE 1016,0 10 0,0
27.05.2018 18:00:00 20,5 17,5 19,8 11 6 25 14 E 1016,7 10 0,9
27.05.2018 17:00:00 17,9 14,6 17,4 15 8 36 19 ENE 1018,1 10 2,8
27.05.2018 16:00:00 19,7 16,3 19,6 11 6 29 16 N 1018,3 10 1,0
27.05.2018 15:00:00 25,5 15,3 26,9 18 10 25 14 ENE 1017,2 10 0,0
27.05.2018 14:00:00 23,3 15,9 23,4 13 7 18 10 NE 1017,6 10 0,0
27.05.2018 13:00:00 25,5 16,5 26,2 11 6 22 12 ENE 1017,9 10 0,0
27.05.2018 12:00:00 24,6 15,2 25,8 15 8 22 12 ENE 1018,0 10 0,0
27.05.2018 11:00:00 25,1 15,2 27,4 15 8 22 12 E 1018,3 10 0,0
27.05.2018 10:00:00 22,5 13,9 23,7 15 8 25 14 E 1018,3 10 0,0
27.05.2018 09:00:00 20,9 13,4 21,7 16 9 25 14 ENE 1018,7 10 0,0
27.05.2018 08:00:00 18,9 12,7 18,6 15 8 22 12 ENE 1018,7 10 0,0
27.05.2018 07:00:00 18,9 12,4 18,6 15 8 25 14 ENE 1018,3 10 0,0
27.05.2018 06:00:00 17,2 11,6 15,5 13 7 18 10 ENE 1018,4 10 0,0
27.05.2018 05:00:00 16,6 11,4 14,7 11 6 14 8 ENE 1018,6 10 0,0
27.05.2018 04:00:00 16,7 11,3 14,1 8 4 11 6 ENE 1018,7 10 0,0
27.05.2018 03:00:00 18,1 11,4 15,6 9 5 14 8 NE 1018,9 10 0,0
27.05.2018 02:00:00 19,3 11,6 17,4 11 6 18 10 ENE 1019,1 10 0,0
27.05.2018 01:00:00 19,9 12,2 18,0 13 7 18 10 ENE 1019,4 10 0,0
27.05.2018 00:00:00 20,5 12,4 18,6 15 8 18 10 ENE 1019,5 10 0,0
26.05.2018 23:00:00 20,2 12,8 17,7 11 6 14 8 ENE 1019,4 10 0,0
26.05.2018 22:00:00 21,9 13,9 19,4 9 5 14 8 NE 1019,3 10 0,0
26.05.2018 21:00:00 23,9 15,0 22,7 11 6 22 12 ENE 1018,9 10 0,0
26.05.2018 20:00:00 26,3 14,8 25,8 11 6 22 12 ENE 1018,7 10 0,0
26.05.2018 19:00:00 26,7 14,7 26,4 11 6 22 12 E 1018,7 10 0,0
26.05.2018 18:00:00 27,4 13,4 27,7 11 6 22 12 ENE 1018,8 10 0,0
26.05.2018 17:00:00 28,3 14,9 28,7 11 6 25 14 E 1018,9 10 0,0
26.05.2018 16:00:00 27,5 14,4 28,5 13 7 29 16 E 1019,3 10 0,0
26.05.2018 15:00:00 26,6 14,5 27,0 11 6 32 18 E 1019,6 10 0,0
26.05.2018 14:00:00 27,7 14,5 30,4 11 6 25 14 ESE 1019,8 10 0,0
26.05.2018 13:00:00 27,1 15,0 29,7 13 7 25 14 ESE 1019,8 10 0,0
26.05.2018 12:00:00 26,3 15,8 28,2 16 9 29 16 E 1019,9 10 0,0
26.05.2018 11:00:00 24,8 16,2 26,8 13 7 22 12 E 1020,0 10 0,0
26.05.2018 10:00:00 23,8 16,9 25,2 11 6 22 12 E 1019,7 10 0,0
26.05.2018 09:00:00 21,5 16,1 22,1 13 7 22 12 E 1019,9 10 0,0
26.05.2018 08:00:00 19,5 16,0 19,2 11 6 14 8 E 1019,7 9 0,0
26.05.2018 07:00:00 16,5 15,6 15,5 9 5 11 6 ENE 1019,3 4,4 0,0
26.05.2018 06:00:00 15,1 14,6 12,8 8 4 11 6 NE 1018,8 5 0,0
26.05.2018 05:00:00 14,0 13,7 11,1 8 4 11 6 ENE 1018,6 3,4 0,0
26.05.2018 04:00:00 14,7 14,3 9,4 5 3 7 4 NNE 1018,6 6 0,0
26.05.2018 03:00:00 16,1 15,1 11,6 5 3 7 4 NNE 1018,7 10 0,0
26.05.2018 02:00:00 16,4 15,2 12,3 5 3 7 4 NNE 1018,9 10 0,0
26.05.2018 01:00:00 16,7 15,2 12,4 4 2 7 4 NNE 1018,8 10 0,0
26.05.2018 00:00:00 18,0 15,4 13,5 5 3 7 4 N 1018,7 10 0,0
25.05.2018 23:00:00 19,0 15,4 15,0 4 2 11 6 NE 1018,6 10 0,0
25.05.2018 22:00:00 19,7 15,2 17,5 8 4 14 8 ENE 1018,4 10 0,0
25.05.2018 21:00:00 21,6 15,7 20,9 9 5 18 10 ENE 1017,7 10 0,0
25.05.2018 20:00:00 23,9 15,6 23,6 16 9 25 14 E 1017,6 10 0,0
25.05.2018 19:00:00 24,9 15,2 25,2 15 8 22 12 NE 1017,1 10 0,0
25.05.2018 18:00:00 25,0 15,7 25,3 13 7 25 14 ENE 1017,6 10 0,0
25.05.2018 17:00:00 24,5 16,0 24,1 13 7 22 12 ENE 1017,9 10 0,0
25.05.2018 16:00:00 25,9 15,2 28,1 9 5 18 10 - 1017,8 10 0,0
25.05.2018 15:00:00 25,0 15,3 26,5 4 2 18 10 - 1017,8 10 0,0
25.05.2018 14:00:00 24,5 15,6 24,9 9 5 18 10 NE 1017,9 10 0,0
25.05.2018 13:00:00 23,9 15,4 26,5 9 5 18 10 - 1018,1 10 0,0
25.05.2018 12:00:00 23,8 16,5 27,2 9 5 18 10 - 1018,2 10 0,0
25.05.2018 11:00:00 22,5 15,8 25,6 5 3 11 6 - 1018,2 10 0,0
25.05.2018 10:00:00 21,5 16,0 24,0 5 3 11 6 S 1018,1 10 0,0
25.05.2018 09:00:00 19,5 15,8 21,5 5 3 11 6 ESE 1017,9 9 0,0
25.05.2018 08:00:00 18,0 15,2 18,3 8 4 11 6 SE 1017,6 7 0,0
25.05.2018 07:00:00 15,9 14,8 15,4 8 4 11 6 E 1017,5 4,3 0,0
25.05.2018 06:00:00 14,3 13,8 12,0 8 4 7 4 E 1017,4 2,7 0,0
25.05.2018 05:00:00 13,6 13,3 11,9 9 5 11 6 E 1017,2 3,1 0,0
25.05.2018 04:00:00 15,1 14,1 13,4 9 5 14 8 E 1017,2 6 0,0
25.05.2018 03:00:00 15,7 14,3 13,4 8 4 11 6 E 1017,2 9 0,0
25.05.2018 02:00:00 16,3 14,7 14,8 11 6 14 8 E 1017,4 10 0,0
25.05.2018 01:00:00 17,2 14,6 16,4 9 5 14 8 E 1017,4 10 0,0
25.05.2018 00:00:00 18,1 14,8 17,5 13 7 22 12 E 1017,3 10 0,0
24.05.2018 23:00:00 18,4 14,7 17,7 13 7 25 14 E 1017,4 10 0,0
24.05.2018 22:00:00 18,9 14,8 18,3 15 8 29 16 E 1017,3 10 0,0
24.05.2018 21:00:00 19,5 15,1 19,2 16 9 32 18 E 1017,0 10 0,0
24.05.2018 20:00:00 20,2 14,9 20,2 21 11 40 21 E 1016,8 10 0,0
24.05.2018 19:00:00 20,8 14,8 20,8 21 11 43 23 E 1016,7 10 0,0
24.05.2018 18:00:00 22,6 14,9 24,0 26 14 43 23 ENE 1016,8 10 0,0
24.05.2018 17:00:00 23,1 14,4 23,8 28 15 40 21 ENE 1016,8 10 0,0
24.05.2018 16:00:00 22,3 15,6 23,5 15 8 22 12 ENE 1017,7 10 0,0
24.05.2018 15:00:00 20,3 14,7 20,6 9 5 22 12 NE 1018,3 10 0,0
24.05.2018 14:00:00 19,2 13,2 20,1 16 9 29 16 E 1018,9 10 0,0
24.05.2018 13:00:00 18,4 12,7 19,0 16 9 29 16 ENE 1019,4 10 0,0
24.05.2018 12:00:00 18,3 13,4 18,6 15 8 25 14 NE 1019,6 10 0,0
24.05.2018 11:00:00 17,1 11,7 17,1 15 8 22 12 ENE 1020,0 10 0,0
24.05.2018 10:00:00 14,4 11,3 14,3 9 5 25 14 NE 1019,8 10 0,0
24.05.2018 09:00:00 14,6 10,9 14,2 13 7 25 14 NE 1019,8 10 0,0
24.05.2018 08:00:00 15,6 9,3 15,1 13 7 22 12 ENE 1020,1 10 0,0
24.05.2018 07:00:00 15,4 8,7 14,6 13 7 22 12 ENE 1020,1 10 0,0
24.05.2018 06:00:00 15,0 7,8 13,4 13 7 22 12 NE 1019,9 10 0,0
24.05.2018 05:00:00 15,5 7,8 14,0 11 6 18 10 NE 1020,0 10 0,0
24.05.2018 04:00:00 15,6 8,0 13,9 13 7 22 12 NE 1020,5 10 0,0
24.05.2018 03:00:00 16,0 8,2 14,2 13 7 22 12 NE 1020,5 10 0,0
24.05.2018 02:00:00 16,9 8,0 15,0 13 7 18 10 NE 1020,7 10 0,0
24.05.2018 01:00:00 17,7 8,8 15,6 11 6 18 10 NE 1020,7 10 0,0
24.05.2018 00:00:00 17,9 9,6 15,8 13 7 18 10 NE 1020,7 10 0,0
23.05.2018 23:00:00 18,1 9,2 15,7 9 5 14 8 NNE 1020,7 10 0,0
23.05.2018 22:00:00 20,2 9,0 18,5 11 6 22 12 NE 1020,4 10 0,0
23.05.2018 21:00:00 21,3 9,1 19,8 13 7 22 12 NE 1020,1 10 0,0
23.05.2018 20:00:00 22,3 11,5 21,5 16 9 29 16 ENE 1019,9 10 0,0
23.05.2018 19:00:00 23,9 12,7 23,5 18 10 32 18 ENE 1019,5 10 0,0
23.05.2018 18:00:00 24,1 12,8 24,1 18 10 29 16 ENE 1019,3 10 0,0
23.05.2018 17:00:00 24,3 13,5 24,6 22 12 32 18 E 1019,1 10 0,0
23.05.2018 16:00:00 23,7 13,9 24,5 13 7 25 14 ENE 1019,5 10 0,0
23.05.2018 15:00:00 22,4 15,0 23,7 16 9 25 14 NE 1020,1 10 0,0
23.05.2018 14:00:00 20,7 14,8 21,5 11 6 25 14 NNE 1020,2 10 0,0
23.05.2018 13:00:00 20,2 15,3 21,4 9 5 18 10 NNE 1020,1 10 0,0
23.05.2018 12:00:00 19,3 15,5 20,3 13 7 18 10 NNE 1019,9 10 0,0
23.05.2018 11:00:00 17,1 14,8 17,0 9 5 18 10 N 1019,6 10 0,0
23.05.2018 10:00:00 16,5 14,8 16,7 11 6 18 10 NNE 1019,4 10 0,0
23.05.2018 09:00:00 15,5 14,8 15,4 8 4 14 8 N 1019,0 7 0,4
23.05.2018 08:00:00 14,9 14,1 14,6 9 5 14 8 NNE 1018,3 6 0,8
23.05.2018 07:00:00 14,9 14,3 14,6 8 4 11 6 N 1017,8 3,3 1,4
23.05.2018 06:00:00 14,9 14,3 14,5 9 5 14 8 N 1017,2 5 0,0
23.05.2018 05:00:00 15,0 14,2 14,5 8 4 14 8 NNW 1016,9 8 0,0
23.05.2018 04:00:00 14,9 14,1 14,3 8 4 11 6 NNW 1016,5 10 0,0
23.05.2018 03:00:00 15,0 14,2 14,4 5 3 11 6 WNW 1016,3 9 0,0
23.05.2018 02:00:00 15,0 14,1 14,5 5 3 18 10 NNW 1016,1 10 0,0
23.05.2018 01:00:00 15,4 13,8 14,5 5 3 14 8 NW 1015,9 10 0,1
23.05.2018 00:00:00 15,1 13,9 14,5 9 5 14 8 W 1015,8 9 1,0
22.05.2018 23:00:00 15,0 14,3 14,7 9 5 14 8 WSW 1015,9 10 1,1
22.05.2018 22:00:00 15,2 13,7 14,5 8 4 18 10 W 1015,2 10 0,1
22.05.2018 21:00:00 15,1 13,6 14,6 8 4 29 16 NW 1014,6 10 3,0
22.05.2018 20:00:00 15,4 13,5 15,0 8 4 22 12 NE 1015,2 3,5 4,2
22.05.2018 19:00:00 18,6 12,0 18,7 13 7 29 16 W 1013,7 10 0,0
22.05.2018 18:00:00 19,5 13,8 19,9 16 9 29 16 WSW 1013,6 10 0,0
22.05.2018 17:00:00 22,1 12,3 21,6 11 6 22 12 E 1012,8 10 0,0
22.05.2018 16:00:00 22,7 12,0 22,9 15 8 22 12 ENE 1012,5 10 0,0
22.05.2018 15:00:00 23,4 12,5 24,3 5 3 22 12 NNE 1012,2 10 0,0
22.05.2018 14:00:00 24,8 11,8 28,4 9 5 22 12 - 1012,3 10 0,0
22.05.2018 13:00:00 23,5 11,7 27,1 11 6 22 12 NE 1012,5 10 0,0
22.05.2018 12:00:00 22,8 11,8 25,7 15 8 22 12 ENE 1012,6 10 0,0

tt = Température de l'air
td = dewpoint
tt 5cm = Température de l'air 5cm
ff = Vitesse du vent
fx = gusts
dd = Direction du vent
ppp = reduced air pressure
vv = visibility
rr = Quantités de précipitations

stations d'obs. à proximité